Regional Weather Roundup
Issued by NWS

Home | Current Version | Previous Version | Text Only | Print | Product List | Glossary Off
Versions: 1 2 3 4 5 6 7 8 9 10 11 12 13 14 15 16 17 18 19 20 21 22 23 24 25 26 27 28 29 30 31 32 33 34 35 36 37 38 39 40 41 42 43 44 45 46 47 48 49 50

000
ASUS43 KMKX 201100
RWRWI

WISCONSIN REGIONAL WEATHER ROUNDUP
NATIONAL WEATHER SERVICE MILWAUKEE/SULLIVAN WI
600 AM CDT SUN AUG 20 2017

NOTE: "FAIR" INDICATES FEW OR NO CLOUDS BELOW 12,000 FEET WITH NO
SIGNIFICANT WEATHER AND/OR OBSTRUCTIONS TO VISIBILITY.

WIZ001-002-006>008-014>016-023>028-201200-
NORTHWEST WISCONSIN

CITY           SKY/WX    TMP DP  RH WIND       PRES   REMARKS
SUPERIOR ARPT  FOG       54  54 100 CALM      29.86S VSB 1/2
ASHLAND        MOCLDY    58  58 100 SW5       29.89S
HAYWARD        CLEAR     61  59  93 S6        29.92S
SIREN          CLOUDY    62  61  95 S6        29.89F
CUMBERLAND     CLOUDY    57  55  94 CALM      29.92F
RICE LAKE      CLOUDY    59  59  97 CALM      29.93F FOG
CHETEK         CLOUDY    60  59  99 SE5       29.93F
LADYSMITH      CLOUDY    61  59  94 S5        29.96F
EAU CLAIRE     NOT AVBL
MENOMONIE      CLOUDY    60  59  97 E5        29.93R
NEW RICHMOND   CLOUDY    61  61  99 SE6       29.90S
OSCEOLA        CLOUDY    62  62 100 SE3       29.92R
$$

WIZ003>005-009-010-017-018-201200-
NORTH CENTRAL WISCONSIN

CITY           SKY/WX    TMP DP  RH WIND       PRES   REMARKS
MANITOWISH WTR CLEAR     57  57 100 S5        29.96R
ARBOR VITAE    CLEAR     58  57  96 S3        29.96F
WOODRUFF       CLEAR     58  57  96 S3        29.96F
RHINELANDER    PTCLDY    58  58 100 SW5       29.99R
EAGLE RIVER    PTCLDY    55  55 100 CALM      29.97R
LAND O LAKES   FOG       51  51 100 CALM      29.98S VSB 3/4
PHILLIPS       CLOUDY    58  58 100 CALM      29.96S
TOMAHAWK         N/A     51  50  97 CALM      29.98R FOG
MEDFORD        CLEAR     56  55  96 S3        29.97F
MERRILL        NOT AVBL
$$

WIZ029-030-035-036-043>047-201200-
CENTRAL WISCONSIN

CITY           SKY/WX    TMP DP  RH WIND       PRES   REMARKS
WAUSAU         CLEAR     56  55  97 SE5       29.98R
MOSINEE        CLEAR     55  55 100 CALM      30.00S
MARSHFIELD     CLEAR     57  55  93 CALM      29.97F
STEVENS POINT  CLEAR     53  53 100 CALM      30.00R
WAUPACA        CLEAR     57  56  97 CALM      30.00R
WAUTOMA        CLEAR     54  53  97 CALM      30.01R
WISC RAPIDS    CLOUDY    59  57  93 CALM      29.99F
CAMP DOUGLAS   NOT AVBL
$$

WIZ011>013-019>022-031-037>040-048>050-201200-
NORTHEAST WISCONSIN

CITY           SKY/WX    TMP DP  RH WIND       PRES   REMARKS
ANTIGO         CLEAR     53  52  99 CALM      29.99S
SHAWANO        CLEAR     60  58  94 CALM      29.98S
OCONTO         CLEAR     55  54  97 CALM      29.97S
STURGEON BAY   CLEAR     61  58  90 S6        29.99R
GREEN BAY      CLEAR     56  56 100 CALM      29.99R FOG
MANITOWOC      NOT AVBL
APPLETON       PTCLDY    61  59  94 CALM      29.99R
CLINTONVILLE   CLEAR     55  54  94 CALM      29.99R
OSHKOSH        CLEAR     62  59  90 SW6       30.00R
$$

WIZ032>034-041-042-053>061-201200-
SOUTHWEST WISCONSIN

CITY           SKY/WX    TMP DP  RH WIND       PRES   REMARKS
LA CROSSE      CLOUDY    65  61  87 SE5       29.95R
SPARTA         CLOUDY    51  51 100 CALM      29.98R
VIROQUA        CLOUDY    63  61  95 CALM      29.98S
BOSCOBEL       CLOUDY    60  59  96 CALM      29.98S FOG
PRAIRIE DU CHI CLOUDY    61  59  91 E6        29.96S
PLATTEVILLE    CLOUDY    62  62  98 SE6       30.00S
$$

WIZ056-057-062-063-064-067-068-201200-
SOUTH CENTRAL WISCONSIN

CITY           SKY/WX    TMP DP  RH WIND       PRES   REMARKS
REEDSBURG      CLOUDY    57  57 100 CALM      29.99R
BARABOO/DELLS  CLOUDY    60  58  92 S6        29.99S
LONE ROCK      NOT AVBL
MINERAL POINT  CLOUDY    63  63 100 SE6       30.00S
MADISON        MOCLDY    61  59  93 CALM      30.01R
MIDDLETON      CLEAR     57  57 100 CALM      30.01R
WATERTOWN      CLEAR     57  57 100 CALM      30.01S
MONROE         CLOUDY    63  55  77 S7        30.01R
JANESVILLE     CLEAR     59  59 100 CALM      30.01S
$$

WIZ051-052-058>065-066-070>072-201200-
SOUTHEAST WISCONSIN

CITY           SKY/WX    TMP DP  RH WIND       PRES   REMARKS
MILWAUKEE      PTCLDY    65  57  75 SW5       30.02R
WAUKESHA       CLEAR     59  57  94 CALM      30.03R
MILWAUKEE/TIMM CLEAR     59  55  88 CALM      30.02S
RACINE         CLEAR     63  59  87 SW5       30.04R
KENOSHA        CLEAR     58  56  93 SW3       30.03R
FOND DU LAC    CLEAR     60  57  89 S3        30.01R
SHEBOYGAN      PTCLDY    58  58 100 S3        30.01R
WEST BEND      CLEAR     55  55 100 CALM      30.02R
JUNEAU         CLEAR     59  58  96 CALM      30.02S
$$

LSZ147-162-201200-
LAKE SUPERIOR

STATION/POSITION TIME  TEMP    WIND        PRES    WAVE
                       AIR SEA DIR/SP/G            HT/PER
                 (UTC) (F)     (DEG/KT/KT) (MB)    (FT/S)
W MID LAKE BUOY  0950   62 59  210/ 10/ 12 1010.6F   1/ 3
DEVILS ISLAND    1000   66     180/  7/  8 1011.1R
SAXON HARBOR     1030   65     190/  5/  8 1011.9R
$$

LMZ867-665-643>646-201200-
LAKE MICHIGAN

STATION/POSITION TIME  TEMP    WIND        PRES    WAVE
                       AIR SEA DIR/SP/G            HT/PER
                 (UTC) (F)     (DEG/KT/KT) (MB)    (FT/S)
S GREEN BAY BUOY 1000   70 71  220/ 10/ 12 1014.5
N MID LAKE BUOY  0950   68 67  240/  8/ 10 1014.3R   1/ 4
NORTHPORT PIER   1040   64     210/  1/  5 1014.6R
KEWAUNEE LAKESHO 1030   64     310/  4/  6 1014.4R
SHEBOYGAN LAKESH 1000   66     210/  5/  6 1015.4R
PORT WASHINGTON  1040   65     300/  1/  2 1016.9R
ATWATER BUOY     0909   71 70  170/  8/  8 1015.9
MILWAUKEE LAKESH 1030   68     220/  6/  6   N/A
S MID LAKE BUOY  0950   72 71  180/  8/  8 1016.2R   1
KENOSHA   LAKESH 1000   67     190/  4/  5 1015.9
$$

TC  - TEMPERATURE IN CELSIUS
VSB - VISIBILITY IN STATUTE MILES
WCI - WIND CHILL INDEX
HX  - HEAT INDEX





USA.gov is the U.S. government's official web portal to all federal, state and local government web resources and services.